Stations météo

réclame
Mon MeteoGroup
Bilbao/Aeropuerto, Espagne (8025): Température de l'air & dewpoint: 18.05.2019 06:00:00 - 24.05.2019 06:00:00 (CEST)Bilbao/Aeropuerto, Espagne (8025): Vitesse du vent: 18.05.2019 06:00:00 - 24.05.2019 06:00:00 (CEST)Bilbao/Aeropuerto, Espagne (8025): Direction du vent: 18.05.2019 06:00:00 - 24.05.2019 06:00:00 (CEST)Bilbao/Aeropuerto, Espagne (8025): reduced air pressure: 18.05.2019 06:00:00 - 24.05.2019 06:00:00 (CEST)Bilbao/Aeropuerto, Espagne (8025): visibility: 18.05.2019 06:00:00 - 24.05.2019 06:00:00 (CEST)
Date & Time tt [°C] td [°C] ff [km/h] ff [knt] dd ppp [hPa] vv [km]
24.05.2019 06:00:00 - - - - - - -
24.05.2019 05:00:00 13,8 10,8 18 10 NW 1020,1 15
24.05.2019 04:00:00 14,2 11,7 16 9 NW 1020,4 -
24.05.2019 03:00:00 14,4 12,9 9 5 NW 1020,5 -
24.05.2019 02:00:00 14,4 12,9 9 5 NNW 1020,8 -
24.05.2019 01:00:00 14,5 13,0 9 5 NW 1021,0 -
24.05.2019 00:00:00 14,6 13,1 13 7 NNW 1021,0 -
23.05.2019 23:00:00 14,9 13,6 13 7 NNW 1021,1 12
23.05.2019 22:00:00 14,8 13,7 8 4 NNW 1020,9 -
23.05.2019 21:00:00 15,0 13,9 13 7 NW 1020,9 -
23.05.2019 20:00:00 15,9 13,3 21 11 NW 1020,4 12
23.05.2019 19:00:00 16,0 13,1 24 13 NNW 1019,9 -
23.05.2019 18:00:00 18,0 12,4 18 10 NW 1019,5 -
23.05.2019 17:00:00 17,2 12,2 16 9 NNW 1019,2 15
23.05.2019 16:00:00 18,0 13,2 18 10 WNW 1019,1 -
23.05.2019 15:00:00 17,7 13,0 21 11 NW 1019,2 -
23.05.2019 14:00:00 19,1 13,8 21 11 NNW 1019,1 20
23.05.2019 13:00:00 18,6 13,3 18 10 NNW 1019,3 -
23.05.2019 12:00:00 18,8 14,0 15 8 NNW 1019,1 -
23.05.2019 11:00:00 18,1 13,4 16 9 NW 1018,8 20
23.05.2019 10:00:00 16,9 13,3 5 3 WNW 1018,4 -
23.05.2019 09:00:00 14,9 12,9 4 2 ESE 1018,0 -
23.05.2019 08:00:00 13,0 11,7 5 3 E 1017,6 40
23.05.2019 07:00:00 12,2 11,4 8 4 ESE 1017,2 -
23.05.2019 06:00:00 11,6 10,8 8 4 E 1017,1 -
23.05.2019 05:00:00 11,7 10,9 5 3 E 1017,3 15
23.05.2019 04:00:00 12,0 11,2 9 5 ESE 1017,4 -
23.05.2019 03:00:00 12,5 11,6 9 5 ESE 1017,7 -
23.05.2019 02:00:00 13,1 12,0 4 2 ESE 1018,0 -
23.05.2019 01:00:00 13,9 12,1 8 4 E 1018,1 -
23.05.2019 00:00:00 15,1 12,8 5 3 E 1018,2 -
22.05.2019 23:00:00 16,1 13,6 2 1 W 1018,1 15
22.05.2019 22:00:00 17,4 13,7 8 4 W 1017,6 -
22.05.2019 21:00:00 18,7 13,8 9 5 W 1017,2 -
22.05.2019 20:00:00 22,6 13,2 9 5 ENE 1016,8 25
22.05.2019 19:00:00 23,2 13,6 5 3 ESE 1016,5 -
22.05.2019 18:00:00 23,8 13,9 11 6 NE 1016,5 -
22.05.2019 17:00:00 24,0 14,1 11 6 ENE 1016,7 30
22.05.2019 16:00:00 24,2 13,8 11 6 E 1017,1 -
22.05.2019 15:00:00 24,1 13,6 5 3 NW 1017,6 -
22.05.2019 14:00:00 23,3 12,9 11 6 E 1018,2 30
22.05.2019 13:00:00 21,4 11,9 8 4 E 1018,7 -
22.05.2019 12:00:00 20,6 12,3 8 4 ESE 1019,3 -
22.05.2019 11:00:00 19,0 11,8 15 8 ESE 1019,7 25
22.05.2019 10:00:00 15,8 11,0 11 6 SE 1020,3 -
22.05.2019 09:00:00 12,0 9,9 13 7 SE 1020,4 -
22.05.2019 08:00:00 9,7 8,6 8 4 ESE 1020,8 20
22.05.2019 07:00:00 7,9 7,3 5 3 E 1020,7 -
22.05.2019 06:00:00 7,8 7,2 9 5 E 1020,7 -
22.05.2019 05:00:00 8,1 7,3 8 4 ESE 1020,7 15
22.05.2019 04:00:00 8,6 7,8 8 4 E 1020,8 -
22.05.2019 03:00:00 9,0 8,2 9 5 E 1020,9 -
22.05.2019 02:00:00 9,2 8,1 8 4 ESE 1021,0 -
22.05.2019 01:00:00 10,0 8,4 4 2 E 1021,0 -
22.05.2019 00:00:00 11,1 9,3 0 0 N 1021,2 -
21.05.2019 23:00:00 12,5 9,7 4 2 SE 1021,0 15
21.05.2019 22:00:00 13,6 10,4 9 5 WNW 1020,2 -
21.05.2019 21:00:00 16,6 9,3 9 5 NE 1019,6 -
21.05.2019 20:00:00 18,2 8,8 13 7 NE 1018,9 25
21.05.2019 19:00:00 18,9 9,6 13 7 NE 1018,8 -
21.05.2019 18:00:00 18,9 9,8 18 10 NE 1018,9 -
21.05.2019 17:00:00 19,1 10,0 18 10 NE 1019,0 25
21.05.2019 16:00:00 19,8 9,9 18 10 NE 1018,7 -
21.05.2019 15:00:00 20,0 10,5 16 9 NE 1018,7 -
21.05.2019 14:00:00 20,2 10,8 8 4 E 1018,9 40
21.05.2019 13:00:00 19,1 10,7 4 2 ESE 1019,1 -
21.05.2019 12:00:00 18,3 10,6 8 4 SSE 1019,2 -
21.05.2019 11:00:00 16,3 10,3 8 4 SE 1019,4 20
21.05.2019 10:00:00 12,9 10,8 0 0 N 1019,5 -
21.05.2019 09:00:00 9,9 9,1 8 4 E 1019,6 -
21.05.2019 08:00:00 8,1 7,8 8 4 SE 1019,3 2,5
21.05.2019 07:00:00 7,3 7,0 8 4 ESE 1018,7 -
21.05.2019 06:00:00 7,3 6,9 8 4 E 1018,2 -
21.05.2019 05:00:00 7,9 7,5 8 4 E 1017,9 15
21.05.2019 04:00:00 8,2 7,6 9 5 ESE 1017,8 -
21.05.2019 03:00:00 8,6 8,0 5 3 SE 1017,9 -
21.05.2019 02:00:00 9,3 8,5 8 4 ESE 1018,1 -
21.05.2019 01:00:00 10,4 9,3 4 2 ESE 1018,3 -
21.05.2019 00:00:00 11,1 9,5 4 2 ESE 1018,2 -
20.05.2019 23:00:00 12,6 10,1 4 2 E 1017,8 15
20.05.2019 22:00:00 13,7 10,0 4 2 ENE 1017,0 -
20.05.2019 21:00:00 15,2 10,0 8 4 N 1016,4 -
20.05.2019 20:00:00 16,1 10,0 13 7 NE 1016,0 30
20.05.2019 19:00:00 16,6 10,2 13 7 NNE 1015,7 -
20.05.2019 18:00:00 18,1 10,6 13 7 NNW 1015,5 -
20.05.2019 17:00:00 17,5 9,9 15 8 N 1015,6 30
20.05.2019 16:00:00 18,4 10,6 16 9 WNW 1015,9 -
20.05.2019 15:00:00 18,0 9,9 13 7 NW 1016,3 -
20.05.2019 14:00:00 17,7 8,5 13 7 WNW 1016,3 25
20.05.2019 13:00:00 16,2 8,9 8 4 NNW 1016,6 -
20.05.2019 12:00:00 16,4 9,6 8 4 NNW 1016,7 -
20.05.2019 11:00:00 15,0 9,8 8 4 NNW 1016,9 25
20.05.2019 10:00:00 12,8 9,5 2 1 N 1016,9 -
20.05.2019 09:00:00 9,4 8,9 4 2 SE 1016,9 -
20.05.2019 08:00:00 7,7 7,4 5 3 E 1016,4 20
20.05.2019 07:00:00 7,0 6,7 8 4 E 1016,1 -
20.05.2019 06:00:00 6,9 6,6 8 4 E 1016,0 -
20.05.2019 05:00:00 7,8 7,4 5 3 ESE 1016,0 15
20.05.2019 04:00:00 8,0 7,6 8 4 E 1016,0 -
20.05.2019 03:00:00 9,0 8,4 8 4 E 1016,4 -
20.05.2019 02:00:00 9,5 8,9 5 3 E 1016,6 -
20.05.2019 01:00:00 10,0 9,3 5 3 E 1017,0 -
20.05.2019 00:00:00 10,9 9,2 0 0 N 1017,2 -
19.05.2019 23:00:00 11,7 9,1 4 2 W 1017,0 15
19.05.2019 22:00:00 11,9 9,6 11 6 NNW 1016,4 -
19.05.2019 21:00:00 13,1 9,9 16 9 NNW 1016,0 -
19.05.2019 20:00:00 13,6 10,4 18 10 NNW 1015,7 25
19.05.2019 19:00:00 13,5 10,0 28 15 NW 1015,5 -
19.05.2019 18:00:00 14,0 10,1 29 16 NW 1015,5 -
19.05.2019 17:00:00 16,1 11,3 28 15 NW 1015,3 25
19.05.2019 16:00:00 14,4 10,4 26 14 NW 1015,5 -
19.05.2019 15:00:00 13,2 10,1 21 11 WNW 1015,4 -
19.05.2019 14:00:00 12,1 10,0 16 9 WNW 1015,2 20
19.05.2019 13:00:00 12,4 10,6 21 11 NW 1014,9 -
19.05.2019 12:00:00 11,4 9,8 16 9 WNW 1014,7 -
19.05.2019 11:00:00 11,7 9,5 16 9 WNW 1014,2 20
19.05.2019 10:00:00 11,2 9,6 16 9 WNW 1013,9 -
19.05.2019 09:00:00 11,0 9,4 13 7 WNW 1013,3 -
19.05.2019 08:00:00 11,0 9,3 16 9 WNW 1013,1 8
19.05.2019 07:00:00 11,0 9,6 15 8 WNW 1012,8 -
19.05.2019 06:00:00 10,9 10,0 18 10 NW 1012,6 -
19.05.2019 05:00:00 11,2 9,8 16 9 WNW 1012,4 15
19.05.2019 04:00:00 11,1 9,8 9 5 W 1012,4 -
19.05.2019 03:00:00 11,2 9,8 16 9 WNW 1012,6 -
19.05.2019 02:00:00 11,6 9,3 18 10 WNW 1012,9 -
19.05.2019 01:00:00 12,2 9,1 21 11 WNW 1013,1 -
19.05.2019 00:00:00 12,4 8,9 21 11 WNW 1013,1 -
18.05.2019 23:00:00 12,2 8,7 21 11 WNW 1013,2 15
18.05.2019 22:00:00 12,1 8,9 18 10 WNW 1012,9 -
18.05.2019 21:00:00 11,6 9,0 16 9 WNW 1012,8 -
18.05.2019 20:00:00 11,0 8,5 11 6 W 1012,5 20
18.05.2019 19:00:00 11,1 9,0 9 5 W 1012,5 -
18.05.2019 18:00:00 11,3 9,2 15 8 WNW 1012,4 -
18.05.2019 17:00:00 11,8 8,8 13 7 W 1012,1 20
18.05.2019 16:00:00 11,8 8,6 16 9 WNW 1012,2 -
18.05.2019 15:00:00 11,4 8,4 13 7 W 1012,2 -
18.05.2019 14:00:00 11,6 7,7 21 11 W 1012,0 10
18.05.2019 13:00:00 11,7 8,1 18 10 W 1011,9 -
18.05.2019 12:00:00 10,8 9,2 8 4 W 1011,9 -
18.05.2019 11:00:00 10,9 8,2 8 4 W 1011,7 12
18.05.2019 10:00:00 11,5 6,8 13 7 W 1011,4 -
18.05.2019 09:00:00 10,7 6,6 5 3 W 1011,1 -
18.05.2019 08:00:00 10,4 6,2 5 3 W 1010,9 20
18.05.2019 07:00:00 10,9 5,4 11 6 W 1010,8 -
18.05.2019 06:00:00 10,4 4,6 9 5 W 1010,9 -

tt = Température de l'air
td = dewpoint
ff = Vitesse du vent
dd = Direction du vent
ppp = reduced air pressure
vv = visibility

stations d'obs. à proximité